Date String (YYYY-MM-DD hh:mm:ss) UTC,Instrument flags,Ambient pressure (hPa),Sample flow (lpm),Bypass flow (lpm),Sample temperature (°C),Ambient temperature (°C),ASC tube jacket temperature (°C),LED temperature (°C),Box temperature (°C),Sample RH (%),Span deviation,Mass concentration (μg/m³),Mass concentration (μg/m³),Mass concentration (μg/m³)
DateTimeUTC,F1_M11,P_M11,Q1_M11,Q2_M11,T1_M11,T2_M11,T3_M11,T4_M11,T5_M11,U1_M11,ZSPAN_M11,X0_M11,X2_M11,X1_M11
2021-09-04 15:00:00,,0831.4,5.00,0.00,30.0,28.8,00.0,39.1,31.7,29.3,0000.5,0014.63,0010.55,0009.99
2021-09-04 15:01:00,,0831.4,4.99,0.00,30.0,28.9,00.0,39.1,31.7,28.9,0000.6,0014.81,0010.58,0010.00
2021-09-04 15:02:00,,0831.4,5.00,0.00,30.0,29.0,00.0,39.1,31.7,28.9,0000.7,0014.19,0010.62,0010.02
2021-09-04 15:03:00,,0831.4,5.01,0.00,30.0,29.0,00.0,39.1,31.8,29.0,0001.0,0014.18,0010.64,0010.04
2021-09-04 15:04:00,,0831.5,5.00,0.00,30.0,29.1,00.0,39.2,31.8,28.7,0001.0,0014.34,0010.70,0010.05
2021-09-04 15:05:00,,0831.5,5.01,0.00,30.1,29.1,00.0,39.2,31.9,28.5,0001.0,0014.57,0010.73,0010.07
2021-09-04 15:06:00,,0831.5,4.99,0.00,30.1,29.1,00.0,39.2,31.9,28.8,0001.2,0015.09,0010.74,0010.08
2021-09-04 15:07:00,,0831.5,5.01,0.00,30.1,29.2,00.0,39.2,31.9,28.9,0001.3,0015.04,0010.75,0010.11
2021-09-04 15:08:00,,0831.5,4.99,0.00,30.1,29.2,00.0,39.2,31.9,28.6,0001.4,0015.00,0010.76,0010.12
2021-09-04 15:09:00,,0831.5,4.99,0.00,30.2,29.3,00.0,39.2,31.9,28.0,0001.6,0014.88,0010.73,0010.13
2021-09-04 15:10:00,,0831.5,5.00,0.00,30.2,29.3,00.0,39.2,32.0,28.6,0001.6,0014.70,0010.72,0010.16
2021-09-04 15:11:00,,0831.6,4.99,0.00,30.2,29.4,00.0,39.2,32.0,28.9,0001.6,0014.71,0010.77,0010.19
2021-09-04 15:12:00,,0831.5,5.00,0.00,30.2,29.4,00.0,39.2,32.0,28.7,0001.6,0014.53,0010.74,0010.18
2021-09-04 15:13:00,,0831.6,5.00,0.00,30.2,29.4,00.0,39.3,32.1,28.5,0001.5,0014.59,0010.75,0010.20
2021-09-04 15:14:00,,0831.5,5.01,0.00,30.3,29.5,00.0,39.3,32.1,29.0,0001.3,0015.09,0010.77,0010.21
2021-09-04 15:15:00,,0831.5,4.99,0.00,30.3,29.4,00.0,39.3,32.1,28.8,0001.2,0015.13,0010.76,0010.23
2021-09-04 15:16:00,,0831.5,5.01,0.00,30.3,28.3,00.0,39.3,31.8,28.5,0001.3,0015.33,0010.76,0010.24
2021-09-04 15:17:00,,0831.5,5.01,0.00,30.1,26.7,00.0,39.3,31.4,28.4,0001.2,0014.89,0010.77,0010.27
2021-09-04 15:18:00,,0831.5,4.99,0.00,30.0,26.4,00.0,39.3,31.3,28.7,0001.0,0015.23,0010.80,0010.27
2021-09-04 15:19:00,,0831.5,5.01,0.00,30.0,26.8,00.0,39.2,31.4,29.5,0001.1,0015.25,0010.78,0010.25
2021-09-04 15:20:00,,0831.5,5.00,0.00,29.9,27.3,00.0,39.2,31.4,29.7,0000.9,0015.24,0010.75,0010.22
2021-09-04 15:21:00,,0831.5,5.01,0.00,29.9,27.6,00.0,39.1,31.4,29.7,0000.8,0015.20,0010.72,0010.20
2021-09-04 15:22:00,,0831.5,4.98,0.00,29.9,27.9,00.0,39.1,31.5,30.1,0000.5,0015.15,0010.69,0010.18
2021-09-04 15:23:00,,0831.5,5.00,0.00,29.9,28.2,00.0,39.1,31.5,29.8,0000.4,0015.46,0010.64,0010.15
2021-09-04 15:24:00,,0831.5,5.00,0.00,29.9,28.4,00.0,39.1,31.6,30.6,0000.5,0015.37,0010.58,0010.11
2021-09-04 15:25:00,,0831.5,5.00,0.00,29.9,28.5,00.0,39.1,31.6,31.3,0000.5,0014.72,0010.53,0010.07
2021-09-04 15:26:00,,0831.5,5.00,0.00,29.9,28.7,00.0,39.1,31.7,31.5,0000.2,0014.68,0010.46,0010.02
2021-09-04 15:27:00,,0831.5,5.01,0.00,29.9,28.8,00.0,39.1,31.7,30.4,0000.2,0014.49,0010.41,0009.96
2021-09-04 15:28:00,,0831.5,5.01,0.00,30.0,28.9,00.0,39.1,31.8,30.0,0000.3,0014.27,0010.36,0009.90
2021-09-04 15:29:00,,0831.5,5.00,0.00,30.0,29.0,00.0,39.1,31.7,30.6,0000.4,0013.98,0010.32,0009.88
2021-09-04 15:30:00,,0831.5,4.99,0.00,30.0,29.0,00.0,39.1,31.7,31.2,0000.3,0013.84,0010.28,0009.85
2021-09-04 15:31:00,,0831.5,5.00,0.00,30.0,29.1,00.0,39.1,31.8,31.5,0000.3,0014.02,0010.29,0009.84
2021-09-04 15:32:00,,0831.5,5.01,0.00,30.1,29.1,00.0,39.1,31.9,31.0,0000.4,0014.16,0010.31,0009.82
2021-09-04 15:33:00,,0831.5,4.99,0.00,30.1,29.2,00.0,39.1,31.9,30.9,0000.6,0014.20,0010.29,0009.79
2021-09-04 15:34:00,,0831.5,5.01,0.00,30.1,29.2,00.0,39.1,31.9,30.8,0000.8,0013.94,0010.32,0009.78
2021-09-04 15:35:00,,0831.5,4.99,0.00,30.1,29.3,00.0,39.2,31.9,30.6,0000.5,0013.99,0010.34,0009.78
2021-09-04 15:36:00,,0831.5,5.01,0.00,30.2,29.3,00.0,39.2,32.0,30.9,0000.5,0014.14,0010.34,0009.75
2021-09-04 15:37:00,,0831.5,5.00,0.00,30.2,29.3,00.0,39.2,32.0,30.8,0000.5,0014.55,0010.32,0009.74
2021-09-04 15:38:00,,0831.6,5.00,0.00,30.2,28.1,00.0,39.2,31.7,30.7,0000.4,0014.63,0010.33,0009.74
2021-09-04 15:39:00,,0831.5,5.00,0.00,30.0,26.6,00.0,39.2,31.3,31.1,0000.2,0014.70,0010.32,0009.72
2021-09-04 15:40:00,,0831.5,5.01,0.00,29.9,26.5,00.0,39.1,31.3,30.9,0000.2,0014.70,0010.31,0009.70
2021-09-04 15:41:00,,0831.6,4.99,0.00,29.9,26.9,00.0,39.1,31.3,30.9,-000.1,0014.82,0010.34,0009.68
2021-09-04 15:42:00,,0831.5,5.01,0.00,29.8,27.3,00.0,39.0,31.3,31.5,-000.1,0014.75,0010.30,0009.66
2021-09-04 15:43:00,,0831.5,5.00,0.00,29.8,27.7,00.0,39.0,31.4,31.1,0000.0,0014.61,0010.23,0009.62
2021-09-04 15:44:00,,0831.5,5.01,0.00,29.8,28.0,00.0,39.0,31.5,31.4,-000.1,0014.53,0010.17,0009.58
2021-09-04 15:45:00,,0831.5,5.00,0.00,29.8,28.2,00.0,39.0,31.5,31.1,-000.0,0015.01,0010.13,0009.57
2021-09-04 15:46:00,,0831.5,5.01,0.00,29.9,28.4,00.0,39.0,31.6,31.2,0000.3,0014.93,0010.09,0009.56
2021-09-04 15:47:00,,0831.5,5.00,0.00,29.9,28.6,00.0,39.0,31.6,31.2,0000.2,0014.88,0010.07,0009.55
2021-09-04 15:48:00,,0831.5,5.00,0.00,29.9,28.7,00.0,39.0,31.7,30.6,0000.3,0014.33,0010.08,0009.55
2021-09-04 15:49:00,,0831.5,5.00,0.00,29.9,28.8,00.0,39.0,31.7,30.5,0000.2,0014.10,0010.09,0009.54
2021-09-04 15:50:00,,0831.6,5.00,0.00,30.0,28.9,00.0,39.0,31.8,30.3,0000.2,0014.08,0010.12,0009.57
2021-09-04 15:51:00,,0831.6,5.01,0.00,30.0,29.0,00.0,39.0,31.7,30.0,-000.0,0014.09,0010.14,0009.59
2021-09-04 15:52:00,,0831.6,4.99,0.00,30.0,29.1,00.0,39.0,31.8,30.1,-000.1,0014.03,0010.12,0009.61
2021-09-04 15:53:00,,0831.5,5.01,0.00,30.0,29.1,00.0,39.0,31.8,30.7,-000.0,0014.10,0010.17,0009.63
2021-09-04 15:54:00,,0831.5,5.01,0.00,30.1,29.2,00.0,39.1,31.9,30.8,-000.1,0014.23,0010.22,0009.67
2021-09-04 15:55:00,,0831.5,4.99,0.00,30.1,28.9,00.0,39.1,31.8,31.1,-000.0,0014.36,0010.26,0009.69
2021-09-04 15:56:00,,0831.5,5.00,0.00,30.0,27.2,00.0,39.1,31.4,31.8,-000.2,0014.45,0010.27,0009.71
2021-09-04 15:57:00,,0831.5,5.00,0.00,29.9,26.3,00.0,39.0,31.2,31.9,-000.4,0015.06,0010.31,0009.71
2021-09-04 15:58:00,,0831.5,5.01,0.00,29.8,26.5,00.0,39.0,31.1,32.0,-000.6,0015.05,0010.33,0009.72
2021-09-04 15:59:00,,0831.5,5.00,0.00,29.7,26.9,00.0,39.0,31.2,32.2,-000.5,0015.21,0010.32,0009.73
